Weather History for Miami, FL

Change the Weather History Date:

Saturday, December 14, 2013

  Actual Average Record
Temperature  
Mean Temperature 78 °F 71 °F  
Max Temperature 82 °F 78 °F 86 °F (1900)
Min Temperature 74 °F 63 °F 35 °F (1962)
Degree Days  
Heating Degree Days 0 1  
Month to date heating degree days 0 10  
Since 1 July heating degree days 2 13  
Cooling Degree Days 13 7  
Month to date cooling degree days 148 103  
Year to date cooling degree days 4689 4475  
Growing Degree Days 28 (Base 50)    
Moisture  
Dew Point 70 °F    
Average Humidity 76    
Maximum Humidity 87    
Minimum Humidity 65    
Precipitation  
Precipitation 0.01 in 0.07 in 1.55 in (1919)
Month to date precipitation 0.46 0.97  
Year to date precipitation 66.21 60.83  
Snow  
Snow 0.00 in - - ()
Month to date snowfall 0.0  
Since 1 July snowfall 0.0  
Snow Depth 0.00 in    
Sea Level Pressure  
Sea Level Pressure 30.05 in    
Wind  
Wind Speed 11 mph (SE)    
Max Wind Speed 20 mph    
Max Gust Speed 26 mph    
Visibility 10 miles    
Events      
T = Trace of Precipitation, MM = Missing Value Source: NWS Daily Summary

Daily Weather History Graph

Daily Weather History Graph

Search for Another Location

Airport:

Trip Planner

Search our weather history database for the weather conditions in past years. The results will help you decide how hot, cold, wet, or windy it might be!

Date:

Astronomy

Dec. 14, 2013 Rise Set
Actual Time 6:59 AM EST 5:32 PM EST
Civil Twilight 6:34 AM EST 5:57 PM EST
Nautical Twilight 6:05 AM EST 6:26 PM EST
Astronomical Twilight 5:37 AM EST 6:54 PM EST
Moon 3:44 PM EST (12/14) 4:29 AM EST (12/14)
Length of Visible Light 11h 22m
Length of Day
10h 32m
Waxing Gibbous, 93% of the Moon is Illuminated
Dec 14
Waxing Gibbous
Dec 17
Full
Dec 25
Last Quarter
Jan 1
New
Jan 7
First Quarter

Hourly Weather History & Observations

Time (EST) Temp. Heat Index Dew Point Humidity Pressure Visibility Wind Dir Wind Speed Gust Speed Precip Events Conditions
12:53 AM 75.0 °F - 68.0 °F 79% 30.10 in 10.0 mi East 16.1 mph 20.7 mph N/A   Mostly Cloudy
1:53 AM 75.0 °F - 68.0 °F 79% 30.08 in 10.0 mi East 13.8 mph - 0.00 in   Scattered Clouds
2:53 AM 73.9 °F - 68.0 °F 82% 30.07 in 10.0 mi East 10.4 mph - N/A   Scattered Clouds
3:53 AM 75.0 °F - 68.0 °F 79% 30.06 in 10.0 mi ESE 11.5 mph - N/A   Partly Cloudy
4:53 AM 75.0 °F - 68.0 °F 79% 30.06 in 10.0 mi ESE 10.4 mph - N/A   Partly Cloudy
5:53 AM 75.0 °F - 68.0 °F 79% 30.06 in 10.0 mi ESE 9.2 mph - N/A   Partly Cloudy
6:53 AM 73.9 °F - 69.1 °F 85% 30.07 in 10.0 mi ESE 11.5 mph - 0.01 in   Mostly Cloudy
7:53 AM 75.0 °F - 71.1 °F 87% 30.09 in 10.0 mi ESE 9.2 mph - 0.00 in   Mostly Cloudy
8:53 AM 77.0 °F - 70.0 °F 79% 30.11 in 10.0 mi ESE 10.4 mph - N/A   Mostly Cloudy
9:53 AM 80.1 °F 83.2 °F 70.0 °F 71% 30.11 in 10.0 mi SE 12.7 mph 23.0 mph N/A   Mostly Cloudy
10:53 AM 80.1 °F 83.2 °F 70.0 °F 71% 30.10 in 10.0 mi SE 17.3 mph 24.2 mph N/A   Mostly Cloudy
11:53 AM 82.0 °F 85.5 °F 69.1 °F 65% 30.07 in 10.0 mi ESE 17.3 mph 23.0 mph N/A   Mostly Cloudy
12:53 PM 81.0 °F 84.1 °F 69.1 °F 67% 30.04 in 10.0 mi SE 17.3 mph 24.2 mph N/A   Mostly Cloudy
1:53 PM 80.1 °F 83.2 °F 70.0 °F 71% 30.01 in 10.0 mi SE 13.8 mph 24.2 mph N/A   Mostly Cloudy
2:53 PM 80.1 °F 83.2 °F 70.0 °F 71% 30.01 in 10.0 mi SE 12.7 mph 21.9 mph N/A   Mostly Cloudy
3:53 PM 79.0 °F - 70.0 °F 74% 30.01 in 10.0 mi SE 13.8 mph 21.9 mph N/A   Scattered Clouds
4:53 PM 79.0 °F - 70.0 °F 74% 30.02 in 10.0 mi SE 11.5 mph - N/A   Scattered Clouds
5:53 PM 78.1 °F - 70.0 °F 76% 30.03 in 10.0 mi SSE 5.8 mph - N/A   Scattered Clouds
6:53 PM 78.1 °F - 70.0 °F 76% 30.03 in 10.0 mi SE 6.9 mph - N/A   Scattered Clouds
7:53 PM 77.0 °F - 71.1 °F 82% 30.03 in 10.0 mi SE 10.4 mph - N/A   Clear
8:53 PM 77.0 °F - 71.1 °F 82% 30.03 in 10.0 mi SE 6.9 mph - N/A   Scattered Clouds
9:53 PM 77.0 °F - 71.1 °F 82% 30.03 in 10.0 mi SE 8.1 mph - N/A   Partly Cloudy
10:53 PM 75.9 °F - 71.1 °F 85% 30.03 in 10.0 mi SSE 5.8 mph - N/A   Clear
11:53 PM 75.9 °F - 72.0 °F 87% 30.02 in 10.0 mi SSE 6.9 mph - N/A   Partly Cloudy